Regional Weather Roundup
Issued by NWS Albany, NY

Home | Current Version | Previous Version | Text Only | Print | Product List | Glossary On
Versions: 1 2 3 4 5 6 7 8 9 10 11 12 13 14 15 16 17 18 19 20 21 22 23 24 25 26 27 28 29 30 31 32 33 34 35 36 37 38 39 40 41 42 43 44 45 46 47 48 49 50
000
ASUS41 KALY 022310
RWRALY

NEW YORK STATE HOURLY WEATHER ROUNDUP
NATIONAL WEATHER SERVICE ALBANY NY
700 PM EDT WED SEP 02 2015

NOTE: "FAIR" INDICATES FEW OR NO CLOUDS BELOW 12,000 FEET WITH NO
SIGNIFICANT WEATHER AND/OR NO OBSTRUCTIONS TO VISIBILITY.

NYZ032-033-038>043-046>054-057>066-NYZ062>081-030000-
EAST


CITY           SKY/WX    TMP DP  RH WIND       PRES   REMARKS
ALBANY         PTCLDY    82  65  56 W7        29.89R
GLENS FALLS    PTCLDY    81  68  64 CALM      29.87F
POUGHKEEPSIE   PTCLDY    85  66  53 CALM      29.87F
NEWBURGH       PTCLDY    86  66  51 SW7       29.91S
MONTGOMERY     PTCLDY    84  65  52 W6        29.89F
WHITE PLAINS   CLEAR     80  62  54 S7        29.91S
ISLIP          PTCLDY    78  65  63 SW10      29.90S
NEW YORK CITY  MOCLDY    82  63  52 S9        29.90S
CENTRAL PARK   CLEAR     83  64  52 CALM      29.93S
$$

NYZ005>009-017-018-044>046-055-056-030000-
CENTRAL


CITY           SKY/WX    TMP DP  RH WIND       PRES   REMARKS
FULTON         PTCLDY    79  70  74 CALM      29.93F
SYRACUSE       PTCLDY    81  70  69 NW5       29.93F
ROME           PTCLDY    78  69  73 N5        29.94F
ELMIRA         CLEAR     81  69  67 N5        29.94F
BINGHAMTON     CLEAR     77  65  66 N3        29.99F
MONTICELLO     CLEAR     77  64  65 NW5       29.98F
$$

NYZ026>034-041>043-030000-
NORTH


CITY           SKY/WX    TMP DP  RH WIND       PRES   REMARKS
WATERTOWN      PTCLDY    74  68  81 CALM      29.92F HAZE
FORT DRUM      NOT AVBL
MASSENA        PTCLDY    75  69  81 SW5       29.91S HAZE
SARANAC LAKE   PTCLDY    73  64  73 CALM      29.96S
PLATTSBURGH    PTCLDY    77  69  76 CALM      29.88S
$$

NYZ001>004-010>016-019>021-030000-
WEST


CITY           SKY/WX    TMP DP  RH WIND       PRES   REMARKS
NIAGARA FALLS  PTCLDY    80  67  64 SW13      29.92F
BUFFALO        PTCLDY    78  69  73 SW8       29.94F
DUNKIRK        PTCLDY    77  70  79 SW6       29.97S
JAMESTOWN      CLEAR     79  63  57 NW6       30.02S
WELLSVILLE     PTCLDY    79  64  60 NW7       30.04S
ROCHESTER      MOCLDY    80  69  69 W3        29.94S
PENN YAN       PTCLDY    82  68  62 NW3       29.96F
$$

             KEY
       WCI = WIND CHILL INDEX
       VSB = VISIBILITY
       HX  = HEAT INDEX
$$



USA.gov is the U.S. government's official web portal to all federal, state and local government web resources and services.